Location: Aghk�ilisa
(40.0189°N, 45.0097°E)
Time: 06:11:14
(UTC+00:00)

Cosmos 1812 Rocket - Pass Details

Date: 21 October 2019
Orbit: 606 x 632 km, 82.5° (Epoch: 18 November)

Event Time Altitude Azimuth Distance (km) Brightness Sun altitude
Rises 15:49:07 0° 194° (SSW) 2,886 7.2 -19.2°
Reaches altitude 10° 15:51:21 10° 198° (SSW) 1,988 6.3 -19.6°
Maximum altitude 15:55:43 62° 279° (W) 709 4.0 -20.5°
Drops below altitude 10° 16:00:09 10° 1° (N) 2,017 6.2 -21.3°
Sets 16:02:26 0° 4° (N) 2,931 7.0 -21.7°
